Starlink 11239

operational
NORAD ID: 60924 Int'l Des: 2024-155 Owner: SPXS Country: US Constellation: starlink
LEOCIRCULAR

Über Starlink 11239

Beschreibung wird geladen...

Live-Position

3D-Globus wird geladen...

Nächste Überflüge

Höhenverlauf

Altitude vs Time

uPlot chart will show altitude changes over time

Zweizeiliger Elementsatz

1 60924U 24155A 25351.34074242 -.00003480 00000-0 -23867-4 0 9997
2 60924 53.1593 27.5665 0000946 92.3510 267.7616 15.69722410 75463
Epoch: 17. Dez. 2025 • Age: 8 hours

Aktueller Status

Höhe 362.7 km
Geschwindigkeit 7.69 km/s
Subsatellitenpunkt -10.56°S, 122.3°W
Startdatum 31. Aug. 2024
Alter 1.2 years
Typ internet

Technische Details

Klassifizierung Payload
Masse 960.00 kg
Trockenmasse 910.00 kg
Gesamtmasse 960.00 kg
Länge 0.30 m
Durchmesser 4.10 m
Spannweite 29.00 m
Form Box + pan
Hersteller SPXS
Bus-Typ Starlink V2MD
Phasenstatus In Orbit
Besitzer/Staat SPXS/US

Große Konstellationen

Loading constellations...